logo meteoveneto

Diretta Meteo Punta Marina, Italiasabato 25 maggio ore 11:55

Mappa
Sereno 19 °C Sereno 24 Ore: T.min 16 T.max 24
Ponente Nord-Ovest Km/h 7.4 Punto di rugiada: 13 °C Umidità: 68% Visibilità: 0 Km
Il sole sorge alle: 05:31 Il sole tramonta alle: 20:43
25 Maggio 2024 11:55 tempo osservato: Sereno Sereno 19 68 1016 vento: Nord NO 7.4
25 Maggio 2024 10:55 tempo osservato: Sereno Sereno 19 68 1016 vento: Nord NO 9.3
25 Maggio 2024 09:55 tempo osservato: Sereno Sereno 17 77 1016 vento: Nord N 5.5
25 Maggio 2024 08:55 tempo osservato: Sereno Sereno 16 77 1016 vento: Nord N 3.7
25 Maggio 2024 07:55 tempo osservato: Sereno Sereno 16 82 1016 vento: Nord N 3.7
25 Maggio 2024 06:55 tempo osservato: Sereno Sereno 16 82 1016 vento: Nord N 3.7
25 Maggio 2024 05:55 tempo osservato: Sereno Sereno 16 82 1016 vento: Nord N 3.7
25 Maggio 2024 04:55 tempo osservato: Sereno Sereno 16 87 1017 vento: Nord N 3.7
25 Maggio 2024 03:55 tempo osservato: Sereno Sereno 17 82 1017 vento: Nord N 1.8
25 Maggio 2024 02:55 tempo osservato: Sereno Sereno 19 77 1017 vento: Nord N 1.8
25 Maggio 2024 01:55 tempo osservato: Sereno Sereno 19 77 1017 vento: Nord N 1.8
25 Maggio 2024 00:55 tempo osservato: Sereno Sereno 20 72 1017 vento: Nord N 3.7
24 Maggio 2024 23:55 tempo osservato: Sereno Sereno 20 77 1017 vento: Nord N 3.7
24 Maggio 2024 22:55 tempo osservato: Sereno Sereno 21 68 1017 vento: Nord SE 9.3
24 Maggio 2024 21:55 tempo osservato: Sereno Sereno 21 64 1017 vento: Nord SE 13
24 Maggio 2024 20:55 tempo osservato: Sereno Sereno 22 68 1017 vento: Nord E/SE 16.7
24 Maggio 2024 19:55 tempo osservato: Sereno Sereno 24 60 1018 vento: Nord E/SE 14.8
24 Maggio 2024 18:55 tempo osservato: Sereno Sereno 24 50 1018 vento: Nord E/SE 16.7
24 Maggio 2024 17:55 tempo osservato: Sereno Sereno 24 50 1018 vento: Nord E 14.8
24 Maggio 2024 16:55 tempo osservato: Sereno Sereno 23 53 1018 vento: Nord E 16.7
24 Maggio 2024 15:55 tempo osservato: Sereno Sereno 24 53 1018 vento: Nord E 18.5
24 Maggio 2024 14:55 tempo osservato: Sereno Sereno 23 49 1019 vento: Nord E 13
24 Maggio 2024 13:55 tempo osservato: Sereno Sereno 23 53 1019 vento: Nord E 13